Showing default

COSMOS 2453, 35500

Orbit data source: Space-Track

COSMOS 2453, 35500 is a payload satellite owned by KVR (CIS) in LEO that was launched on Mon, 06 Jul 2009 UTC via an ROKOT launch vehicle from the Plesetsk Missile And Space Complex (PKMTR). Payload-class satellites include a variety of spacecraft equipped with specific instruments for various scientific and technological missions. These include communications satellites like Starlink; space stations such as the ISS; scientific satellites like the Hubble; Earth observation satellites from companies like Planet Labs, Umbra, and HawkEye 360; GPS; miniature CubeSats for education and research; and military/defense satellites.

Loading next visibility...
Identifier
35500, 2009-036C
Orbit
LEO
Country
Flag of CISCIS
Related business
Manufacturer
Resehetnev ISS
Mission
Operational Defense Communications
Bus & Motor
STRELA-3, Unknown motor
Mass
225 kg wet, 225 kg dry
Launch date (UTC)
2009-07-06 (17 years ago)
Launch vehicle
ROKOT
Launch site
Plesetsk Missile And Space Complex (PKMTR)
Object type
Payload
Rocket body
Debris
Shape & HBR
Cyl + 1 Ant, 3.5 m
Radar Cross Section
1.583 m², Medium (>0.1 m² and < 1m²)

Expand to show TLE details & history
Last TLE update: 8 hours ago

TLE from 8 hours ago
0 COSMOS 2453
1 35500U 09036C   26037.92113072  .00000006  00000-0 -30448-4 0  9994
2 35500  82.4913 168.8176 0007819  92.2763 267.9211 12.41517264751816
Epoch: 2026-02-06T22:06Z
TLE epoch observation values (Epoch: 2026-02-06T22:06:25.694Z)
Latitude
-0.00003°
Longitude
60.15846°
Altitude
1,503.104 km
Speed
7.113 km/s
True Right ascension
11h 15m 16s
True Declination
0° 00' 00"
Sunlit
Object was in full shadow at epoch
Visualization orbit readout
Latitude
Unknown
Longitude
Unknown
Altitude
Unknown
Speed
Unknown
Apparent Right ascension
Unknown
Apparent Declination
Unknown
Sunlit
N/A
Visualization observer readout
Local Sidereal Time
08:16:22
Azimuth
Unknown
Elevation
Unknown
Doppler factor
Unknown
Orbital elements
Apogee altitude
1,503.689 km
Perigee altitude
1,491.373 km
Semi-major axis
7,875.668 km
Eccentricity
0.00078
Inclination
82.4913°
RAAN
168.8176°
Arg. of periapsis
92.2763°
True anomaly
267.83156°
Mean anomaly
267.9211°
Eccentric anomaly
267.87633°
Mean motion
3.10536 °/min
Orbital period
115.93 mins
BSTAR
-0.000030448
Loading maneuver chart data...
Computing Atmospheric mass density...
Loading historical data...
Loading historical data...
Loading historical data...
Loading historical data...
Loading historical data...
Loading historical data...
Loading historical data...
Other satellites on launch #36 in the year 2009 (2009-07-06 UTC)

Documentation

Showing up to 5 results
|